Home > Weather > Louisville > Past weeks

Flag for USA Weather for the Past 2 Weeks in Louisville, Kentucky, USA

Now
65 °F

Mostly cloudy.


Feels Like: 65 °F
Forecast: 62 / 78 °F
Wind: 3 mph from East

Location: Standiford Field

Current Time: May 1, 2016 at 4:21:20 AM

Latest Report: May 1, 2016 at 3:56 AM


Visibility: 7 mi

Pressure: 29.86 "Hg

Humidity: 91%

Dew Point: 62 °F

Location of LouisvilleLocation

Historic Weather in Louisville — Graph

°F

Louisville Temperature Yesterday

Maximum temperature yesterday: 67 °F (at 4:56 PM)
Minimum temperature yesterday: 59 °F (at 9:56 AM)
Average temperature yesterday: 63 °F

High & Low Weather Summary for the Past Weeks

 TemperatureHumidityPressure
High86 °F (Apr 18, 2:56 PM)94% (Apr 30, 9:56 PM)30.39 "Hg (Apr 30, 9:56 PM)
Low52 °F (Apr 17, 6:56 AM)16% (Apr 17, 4:56 PM)29.70 "Hg (Apr 26, 6:56 PM)
Average68 °F59%30.00 "Hg
* Reported Apr 16 2:56 AM — May 1 2:56 AM, Louisville, Weather by CustomWeather, © 2016

Note: Actual official high and low records may vary slightly from our data, if they occured in-between our weather recording intervals... More about our weather records

Advertising

Louisville Weather History for the Previous 24 Hours

Scroll right to see more
 ConditionsComfort  
Time TempWeatherWind HumidityBarometerVisibility
2:56 AM
Sun, May 1
64 °FPartly cloudy.5 mph94%29.88 "Hg7 mi
1:56 AM64 °FPartly cloudy.5 mph94%29.89 "Hg7 mi
12:56 AM65 °FOvercast.5 mph91%29.89 "Hg9 mi
11:56 PM
Sat, Apr 30
66 °FLight rain. Mostly cloudy.7 mph90%29.88 "Hg9 mi
10:56 PM66 °FLight rain. Overcast.8 mph90%29.88 "Hg8 mi
9:56 PM65 °FMostly cloudy.9 mph94%29.87 "Hg10 mi
8:56 PM66 °FMostly cloudy.6 mph90%29.88 "Hg10 mi
7:56 PM66 °FLight rain. Overcast.7 mph90%29.88 "Hg7 mi
6:56 PM67 °FCloudy.No wind85%29.89 "Hg10 mi
5:56 PM67 °FMostly cloudy.3 mph81%29.88 "Hg10 mi
4:56 PM67 °FMostly cloudy.No wind81%29.88 "Hg10 mi
3:56 PM65 °FMore clouds than sun.9 mph87%29.85 "Hg10 mi
2:56 PM63 °FPartly sunny.14 mph90%29.89 "Hg8 mi
1:56 PM62 °FLight rain. Fog.14 mph90%29.94 "Hg4 mi
12:56 PM62 °FLight rain. Fog.8 mph90%29.95 "Hg5 mi
11:56 AM60 °FRain. Fog.5 mph90%29.96 "Hg3 mi
10:56 AM60 °FLight rain. Fog.9 mph86%29.95 "Hg5 mi
9:56 AM59 °FLight rain. Fog.5 mph87%29.98 "Hg4 mi
8:56 AM60 °FRain. Mostly cloudy.3 mph80%29.98 "Hg3 mi
7:56 AM61 °FCloudy.7 mph72%29.94 "Hg10 mi
6:56 AM61 °FMostly cloudy.8 mph75%29.94 "Hg10 mi
5:56 AM61 °FMostly cloudy.7 mph75%29.96 "Hg10 mi
4:56 AM61 °FMostly cloudy.9 mph75%29.95 "Hg10 mi
Weather by CustomWeather, © 2016

See weather overviewHow to use our weather pages